Time,TemperatureF,DewpointF,PressureIn,WindDirection,WindDirectionDegrees,WindSpeedMPH,WindSpeedGustMPH,Humidity,HourlyPrecipIn,Conditions,Clouds,dailyrainin,SoftwareType,DateUTC
2013-03-09 00:02:00,31.0,23.0,29.44,North,0,0.0,0.0,71,0.00,,,0.00,,2013-03-09 05:02:00,
2013-03-09 00:12:00,31.0,23.0,29.44,North,0,0.0,0.0,71,0.00,,,0.00,,2013-03-09 05:12:00,
2013-03-09 00:22:00,31.0,23.0,29.44,North,0,0.0,0.0,71,0.00,,,0.00,,2013-03-09 05:22:00,
2013-03-09 00:32:00,30.0,23.0,29.44,North,0,0.0,0.0,74,0.00,,,0.00,,2013-03-09 05:32:00,
2013-03-09 00:43:00,30.0,23.0,29.44,North,0,0.0,0.0,74,0.00,,,0.00,,2013-03-09 05:43:00,
2013-03-09 00:53:00,29.0,23.0,29.44,North,0,0.0,0.0,77,0.00,,,0.00,,2013-03-09 05:53:00,
2013-03-09 01:02:00,28.0,22.0,29.44,North,0,0.0,0.0,78,0.00,,,0.00,,2013-03-09 06:02:00,
2013-03-09 01:11:00,28.0,23.0,29.44,North,0,0.0,0.0,80,0.00,,,0.00,,2013-03-09 06:11:00,
2013-03-09 01:22:00,28.0,23.0,29.44,North,0,0.0,0.0,80,0.00,,,0.00,,2013-03-09 06:22:00,
2013-03-09 01:32:00,28.0,23.0,29.44,North,0,0.0,0.0,81,0.00,,,0.00,,2013-03-09 06:32:00,
2013-03-09 01:42:00,28.0,23.0,29.44,North,0,0.0,0.0,81,0.00,,,0.00,,2013-03-09 06:42:00,
2013-03-09 01:52:00,28.0,24.0,29.41,North,0,0.0,0.0,84,0.00,,,0.00,,2013-03-09 06:52:00,
2013-03-09 02:01:00,28.0,24.0,29.41,North,0,0.0,0.0,84,0.00,,,0.00,,2013-03-09 07:01:00,
2013-03-09 02:11:00,28.0,24.0,29.41,North,0,0.0,0.0,84,0.00,,,0.00,,2013-03-09 07:11:00,
2013-03-09 02:21:00,28.0,24.0,29.41,North,0,0.0,4.0,86,0.00,,,0.00,,2013-03-09 07:21:00,
2013-03-09 02:32:00,28.0,24.0,29.41,North,0,0.0,0.0,86,0.00,,,0.00,,2013-03-09 07:32:00,
2013-03-09 02:42:00,28.0,24.0,29.41,North,0,0.0,0.0,86,0.00,,,0.00,,2013-03-09 07:42:00,
2013-03-09 02:52:00,27.0,24.0,29.41,North,0,0.0,0.0,88,0.00,,,0.00,,2013-03-09 07:52:00,
2013-03-09 03:01:00,27.0,24.0,29.41,North,0,0.0,0.0,88,0.00,,,0.00,,2013-03-09 08:01:00,
2013-03-09 03:11:00,27.0,24.0,29.41,North,0,0.0,0.0,88,0.00,,,0.00,,2013-03-09 08:11:00,
2013-03-09 03:22:00,27.0,24.0,29.41,North,0,0.0,0.0,89,0.00,,,0.00,,2013-03-09 08:22:00,
2013-03-09 03:32:00,29.0,26.0,29.41,North,0,0.0,0.0,89,0.00,,,0.00,,2013-03-09 08:32:00,
2013-03-09 03:42:00,29.0,26.0,29.41,North,0,0.0,0.0,89,0.00,,,0.00,,2013-03-09 08:42:00,
2013-03-09 03:52:00,31.0,25.0,29.38,North,0,0.0,5.0,78,0.00,,,0.00,,2013-03-09 08:52:00,
2013-03-09 04:02:00,31.0,25.0,29.38,North,0,0.0,4.0,77,0.00,,,0.00,,2013-03-09 09:02:00,
2013-03-09 04:12:00,31.0,25.0,29.38,North,0,0.0,4.0,77,0.00,,,0.00,,2013-03-09 09:12:00,
2013-03-09 04:21:00,31.0,24.0,29.38,North,0,0.0,0.0,74,0.00,,,0.00,,2013-03-09 09:21:00,
2013-03-09 04:32:00,30.0,24.0,29.38,North,0,0.0,0.0,77,0.00,,,0.00,,2013-03-09 09:32:00,
2013-03-09 04:42:00,30.0,24.0,29.38,North,0,0.0,0.0,77,0.00,,,0.00,,2013-03-09 09:42:00,
2013-03-09 04:52:00,29.0,23.0,29.38,North,0,0.0,0.0,78,0.00,,,0.00,,2013-03-09 09:52:00,
2013-03-09 05:01:00,29.0,23.0,29.38,North,0,0.0,0.0,79,0.00,,,0.00,,2013-03-09 10:01:00,
2013-03-09 05:11:00,29.0,23.0,29.38,North,0,0.0,0.0,79,0.00,,,0.00,,2013-03-09 10:11:00,
2013-03-09 05:22:00,28.0,23.0,29.38,North,0,0.0,0.0,80,0.00,,,0.00,,2013-03-09 10:22:00,
2013-03-09 05:32:00,28.0,23.0,29.41,North,0,0.0,0.0,81,0.00,,,0.00,,2013-03-09 10:32:00,
2013-03-09 05:42:00,28.0,23.0,29.41,North,0,0.0,0.0,81,0.00,,,0.00,,2013-03-09 10:42:00,
2013-03-09 05:52:00,28.0,23.0,29.41,North,0,0.0,0.0,82,0.00,,,0.00,,2013-03-09 10:52:00,
2013-03-09 06:01:00,28.0,24.0,29.41,North,0,0.0,0.0,83,0.00,,,0.00,,2013-03-09 11:01:00,
2013-03-09 06:11:00,28.0,24.0,29.41,North,0,0.0,0.0,83,0.00,,,0.00,,2013-03-09 11:11:00,
2013-03-09 06:22:00,29.0,25.0,29.41,North,0,0.0,0.0,85,0.00,,,0.00,,2013-03-09 11:22:00,
2013-03-09 06:32:00,30.0,26.0,29.41,North,0,0.0,0.0,84,0.00,,,0.00,,2013-03-09 11:32:00,
2013-03-09 06:42:00,30.0,26.0,29.41,North,0,0.0,0.0,84,0.00,,,0.00,,2013-03-09 11:42:00,
2013-03-09 06:52:00,30.0,25.0,29.44,North,0,0.0,0.0,83,0.00,,,0.00,,2013-03-09 11:52:00,
2013-03-09 07:02:00,29.0,25.0,29.44,North,0,0.0,0.0,84,0.00,,,0.00,,2013-03-09 12:02:00,
2013-03-09 07:11:00,29.0,25.0,29.44,North,0,0.0,0.0,84,0.00,,,0.00,,2013-03-09 12:11:00,
2013-03-09 07:22:00,30.0,26.0,29.44,North,0,0.0,0.0,86,0.00,,,0.00,,2013-03-09 12:22:00,
2013-03-09 07:32:00,30.0,27.0,29.44,North,0,0.0,0.0,87,0.00,,,0.00,,2013-03-09 12:32:00,
2013-03-09 07:42:00,30.0,27.0,29.44,North,0,0.0,0.0,87,0.00,,,0.00,,2013-03-09 12:42:00,
2013-03-09 07:52:00,30.0,27.0,29.44,North,0,0.0,0.0,87,0.00,,,0.00,,2013-03-09 12:52:00,
2013-03-09 08:02:00,32.0,29.0,29.44,North,0,0.0,0.0,87,0.00,,,0.00,,2013-03-09 13:02:00,
2013-03-09 08:11:00,32.0,29.0,29.44,North,0,0.0,0.0,87,0.00,,,0.00,,2013-03-09 13:11:00,
2013-03-09 08:22:00,40.0,28.0,29.44,North,0,0.0,0.0,63,0.00,,,0.00,,2013-03-09 13:22:00,
2013-03-09 08:32:00,45.0,29.0,29.47,North,0,0.0,0.0,53,0.00,,,0.00,,2013-03-09 13:32:00,
2013-03-09 08:42:00,45.0,29.0,29.47,North,0,0.0,0.0,53,0.00,,,0.00,,2013-03-09 13:42:00,
2013-03-09 08:52:00,45.0,29.0,29.47,North,0,0.0,0.0,53,0.00,,,0.00,,2013-03-09 13:52:00,
2013-03-09 09:01:00,54.0,29.0,29.47,North,0,0.0,0.0,38,0.00,,,0.00,,2013-03-09 14:01:00,
2013-03-09 09:11:00,54.0,29.0,29.47,North,0,0.0,0.0,38,0.00,,,0.00,,2013-03-09 14:11:00,
2013-03-09 09:22:00,49.0,25.0,29.44,NW,304,5.0,7.0,39,0.00,,,0.00,,2013-03-09 14:22:00,
2013-03-09 09:32:00,44.0,26.0,29.44,North,0,0.0,4.0,48,0.00,,,0.00,,2013-03-09 14:32:00,
2013-03-09 09:42:00,44.0,26.0,29.44,North,0,0.0,4.0,48,0.00,,,0.00,,2013-03-09 14:42:00,
2013-03-09 09:52:00,45.0,27.0,29.44,ENE,63,4.0,6.0,50,0.00,,,0.00,,2013-03-09 14:52:00,
2013-03-09 10:02:00,45.0,27.0,29.44,ENE,63,4.0,6.0,50,0.00,,,0.00,,2013-03-09 15:02:00,
2013-03-09 10:12:00,45.0,27.0,29.44,ENE,63,4.0,6.0,50,0.00,,,0.00,,2013-03-09 15:12:00,
2013-03-09 10:22:00,46.0,26.0,29.44,North,0,0.0,5.0,46,0.00,,,0.00,,2013-03-09 15:22:00,
2013-03-09 10:32:00,49.0,29.0,29.44,North,0,0.0,6.0,45,0.00,,,0.00,,2013-03-09 15:32:00,
2013-03-09 10:42:00,49.0,29.0,29.44,North,0,0.0,6.0,45,0.00,,,0.00,,2013-03-09 15:42:00,
2013-03-09 10:52:00,51.0,30.0,29.44,ENE,70,6.0,7.0,44,0.00,,,0.00,,2013-03-09 15:52:00,
2013-03-09 11:01:00,53.0,29.0,29.44,ENE,69,5.0,8.0,40,0.00,,,0.00,,2013-03-09 16:01:00,
2013-03-09 11:11:00,53.0,29.0,29.44,ENE,69,5.0,8.0,40,0.00,,,0.00,,2013-03-09 16:11:00,
2013-03-09 11:22:00,54.0,30.0,29.44,ENE,75,6.0,7.0,39,0.00,,,0.00,,2013-03-09 16:22:00,
2013-03-09 11:32:00,56.0,31.0,29.44,ENE,67,4.0,7.0,39,0.00,,,0.00,,2013-03-09 16:32:00,
2013-03-09 11:42:00,56.0,31.0,29.44,ENE,67,4.0,7.0,39,0.00,,,0.00,,2013-03-09 16:42:00,
2013-03-09 11:52:00,56.0,30.0,29.44,ENE,75,4.0,6.0,37,0.00,,,0.00,,2013-03-09 16:52:00,
2013-03-09 12:01:00,57.0,30.0,29.44,NE,56,4.0,7.0,36,0.00,,,0.00,,2013-03-09 17:01:00,
2013-03-09 12:11:00,57.0,30.0,29.44,NE,56,4.0,7.0,36,0.00,,,0.00,,2013-03-09 17:11:00,
2013-03-09 12:22:00,57.0,30.0,29.44,North,0,0.0,5.0,36,0.00,,,0.00,,2013-03-09 17:22:00,
2013-03-09 12:32:00,57.0,30.0,29.44,ENE,69,4.0,8.0,36,0.00,,,0.00,,2013-03-09 17:32:00,
2013-03-09 12:42:00,57.0,30.0,29.44,ENE,69,4.0,8.0,36,0.00,,,0.00,,2013-03-09 17:42:00,
2013-03-09 12:52:00,58.0,31.0,29.41,North,0,0.0,6.0,36,0.00,,,0.00,,2013-03-09 17:52:00,
2013-03-09 13:02:00,57.0,30.0,29.41,North,0,0.0,7.0,36,0.00,,,0.00,,2013-03-09 18:02:00,
2013-03-09 13:11:00,57.0,30.0,29.41,North,0,0.0,7.0,36,0.00,,,0.00,,2013-03-09 18:11:00,
2013-03-09 13:21:00,56.0,29.0,29.41,WNW,301,4.0,10.0,36,0.00,,,0.00,,2013-03-09 18:21:00,
2013-03-09 13:32:00,56.0,30.0,29.38,NW,304,4.0,7.0,37,0.00,,,0.00,,2013-03-09 18:32:00,
2013-03-09 13:42:00,56.0,30.0,29.38,NW,304,4.0,7.0,37,0.00,,,0.00,,2013-03-09 18:42:00,
2013-03-09 13:52:00,58.0,31.0,29.38,WNW,301,4.0,7.0,36,0.00,,,0.00,,2013-03-09 18:52:00,
2013-03-09 14:01:00,58.0,31.0,29.38,North,0,0.0,7.0,36,0.00,,,0.00,,2013-03-09 19:01:00,
2013-03-09 14:12:00,58.0,31.0,29.38,North,0,0.0,7.0,36,0.00,,,0.00,,2013-03-09 19:12:00,
2013-03-09 14:22:00,60.0,32.0,29.38,ENE,60,7.0,8.0,35,0.00,,,0.00,,2013-03-09 19:22:00,
2013-03-09 14:32:00,60.0,32.0,29.35,ENE,68,3.0,7.0,35,0.00,,,0.00,,2013-03-09 19:32:00,
2013-03-09 14:42:00,60.0,32.0,29.35,ENE,68,3.0,7.0,35,0.00,,,0.00,,2013-03-09 19:42:00,
2013-03-09 14:52:00,61.0,32.0,29.35,ENE,62,4.0,7.0,34,0.00,,,0.00,,2013-03-09 19:52:00,
2013-03-09 15:01:00,61.0,32.0,29.35,NE,37,5.0,8.0,34,0.00,,,0.00,,2013-03-09 20:01:00,
2013-03-09 15:11:00,61.0,32.0,29.35,NE,37,5.0,8.0,34,0.00,,,0.00,,2013-03-09 20:11:00,
2013-03-09 15:22:00,61.0,32.0,29.35,ENE,58,5.0,6.0,34,0.00,,,0.00,,2013-03-09 20:22:00,
2013-03-09 15:32:00,61.0,32.0,29.35,ENE,76,6.0,9.0,34,0.00,,,0.00,,2013-03-09 20:32:00,
2013-03-09 15:42:00,61.0,32.0,29.35,ENE,76,6.0,9.0,34,0.00,,,0.00,,2013-03-09 20:42:00,
2013-03-09 15:52:00,60.0,32.0,29.35,ENE,68,4.0,7.0,35,0.00,,,0.00,,2013-03-09 20:52:00,
2013-03-09 16:02:00,60.0,32.0,29.35,ENE,68,4.0,7.0,35,0.00,,,0.00,,2013-03-09 21:02:00,
2013-03-09 16:12:00,60.0,32.0,29.35,ENE,68,4.0,7.0,35,0.00,,,0.00,,2013-03-09 21:12:00,
2013-03-09 16:22:00,59.0,31.0,29.35,ENE,64,4.0,9.0,35,0.00,,,0.00,,2013-03-09 21:22:00,
2013-03-09 16:32:00,60.0,32.0,29.35,ENE,67,6.0,11.0,35,0.00,,,0.00,,2013-03-09 21:32:00,
2013-03-09 16:42:00,60.0,32.0,29.35,ENE,67,6.0,11.0,35,0.00,,,0.00,,2013-03-09 21:42:00,
2013-03-09 16:52:00,61.0,32.0,29.35,NE,55,7.0,10.0,34,0.00,,,0.00,,2013-03-09 21:52:00,
2013-03-09 17:01:00,61.0,32.0,29.35,ENE,73,7.0,11.0,34,0.00,,,0.00,,2013-03-09 22:01:00,
2013-03-09 17:11:00,61.0,32.0,29.35,ENE,73,7.0,11.0,34,0.00,,,0.00,,2013-03-09 22:11:00,
2013-03-09 17:22:00,61.0,32.0,29.35,ENE,73,7.0,11.0,34,0.00,,,0.00,,2013-03-09 22:22:00,
2013-03-09 17:32:00,58.0,31.0,29.35,ENE,60,7.0,8.0,35,0.00,,,0.00,,2013-03-09 22:32:00,
2013-03-09 17:42:00,58.0,31.0,29.35,ENE,60,7.0,8.0,35,0.00,,,0.00,,2013-03-09 22:42:00,
2013-03-09 17:51:00,57.0,30.0,29.35,NNE,33,6.0,8.0,35,0.00,,,0.00,,2013-03-09 22:51:00,
2013-03-09 18:01:00,56.0,29.0,29.35,NE,44,4.0,8.0,35,0.00,,,0.00,,2013-03-09 23:01:00,
2013-03-09 18:11:00,56.0,29.0,29.35,NE,44,4.0,8.0,35,0.00,,,0.00,,2013-03-09 23:11:00,
2013-03-09 18:22:00,55.0,29.0,29.32,NE,51,4.0,6.0,36,0.00,,,0.00,,2013-03-09 23:22:00,
2013-03-09 18:32:00,54.0,28.0,29.32,North,0,0.0,6.0,36,0.00,,,0.00,,2013-03-09 23:32:00,
2013-03-09 18:42:00,54.0,28.0,29.32,North,0,0.0,6.0,36,0.00,,,0.00,,2013-03-09 23:42:00,
2013-03-09 18:52:00,54.0,28.0,29.32,North,0,0.0,6.0,36,0.00,,,0.00,,2013-03-09 23:52:00,
2013-03-09 19:02:00,53.0,27.0,29.32,North,0,0.0,6.0,37,0.00,,,0.00,,2013-03-10 00:02:00,
2013-03-09 19:11:00,53.0,27.0,29.32,North,0,0.0,6.0,37,0.00,,,0.00,,2013-03-10 00:11:00,
2013-03-09 19:22:00,52.0,27.0,29.32,North,0,0.0,4.0,37,0.00,,,0.00,,2013-03-10 00:22:00,
2013-03-09 19:32:00,52.0,27.0,29.32,North,0,0.0,4.0,37,0.00,,,0.00,,2013-03-10 00:32:00,
2013-03-09 19:42:00,52.0,27.0,29.32,North,0,0.0,4.0,37,0.00,,,0.00,,2013-03-10 00:42:00,
2013-03-09 19:52:00,50.0,28.0,29.32,North,0,0.0,0.0,42,0.00,,,0.00,,2013-03-10 00:52:00,
2013-03-09 20:01:00,50.0,27.0,29.32,North,0,0.0,0.0,41,0.00,,,0.00,,2013-03-10 01:01:00,
2013-03-09 20:11:00,50.0,27.0,29.32,North,0,0.0,0.0,41,0.00,,,0.00,,2013-03-10 01:11:00,
2013-03-09 20:22:00,50.0,27.0,29.32,North,0,0.0,0.0,41,0.00,,,0.00,,2013-03-10 01:22:00,
2013-03-09 20:32:00,50.0,27.0,29.32,NNE,31,3.0,4.0,41,0.00,,,0.00,,2013-03-10 01:32:00,
2013-03-09 20:42:00,50.0,27.0,29.32,NNE,31,3.0,4.0,41,0.00,,,0.00,,2013-03-10 01:42:00,
2013-03-09 20:52:00,49.0,29.0,29.32,North,0,0.0,5.0,46,0.00,,,0.00,,2013-03-10 01:52:00,
2013-03-09 21:01:00,49.0,29.0,29.32,North,0,0.0,5.0,46,0.00,,,0.00,,2013-03-10 02:01:00,
2013-03-09 21:11:00,49.0,29.0,29.32,North,0,0.0,5.0,46,0.00,,,0.00,,2013-03-10 02:11:00,
2013-03-09 21:22:00,46.0,33.0,29.32,North,0,0.0,0.0,61,0.00,,,0.00,,2013-03-10 02:22:00,
2013-03-09 21:32:00,45.0,34.0,29.32,North,0,0.0,0.0,65,0.00,,,0.00,,2013-03-10 02:32:00,
2013-03-09 21:42:00,45.0,34.0,29.32,North,0,0.0,0.0,65,0.00,,,0.00,,2013-03-10 02:42:00,
2013-03-09 21:52:00,44.0,34.0,29.32,North,0,0.0,0.0,68,0.00,,,0.00,,2013-03-10 02:52:00,
2013-03-09 22:02:00,42.0,32.0,29.32,North,0,0.0,0.0,68,0.00,,,0.00,,2013-03-10 03:02:00,
2013-03-09 22:12:00,42.0,32.0,29.32,North,0,0.0,0.0,68,0.00,,,0.00,,2013-03-10 03:12:00,
2013-03-09 22:22:00,42.0,34.0,29.32,North,0,0.0,0.0,72,0.00,,,0.00,,2013-03-10 03:22:00,
2013-03-09 22:32:00,41.0,33.0,29.32,North,0,0.0,0.0,72,0.00,,,0.00,,2013-03-10 03:32:00,
2013-03-09 22:42:00,41.0,33.0,29.32,North,0,0.0,0.0,72,0.00,,,0.00,,2013-03-10 03:42:00,
2013-03-09 22:52:00,41.0,33.0,29.32,North,0,0.0,0.0,74,0.00,,,0.00,,2013-03-10 03:52:00,
2013-03-09 23:01:00,41.0,34.0,29.32,North,0,0.0,0.0,75,0.00,,,0.00,,2013-03-10 04:01:00,
2013-03-09 23:11:00,41.0,34.0,29.32,North,0,0.0,0.0,75,0.00,,,0.00,,2013-03-10 04:11:00,
2013-03-09 23:22:00,41.0,34.0,29.32,North,0,0.0,0.0,75,0.00,,,0.00,,2013-03-10 04:22:00,
2013-03-09 23:32:00,41.0,33.0,29.32,North,0,0.0,0.0,72,0.00,,,0.00,,2013-03-10 04:32:00,
2013-03-09 23:42:00,41.0,33.0,29.32,North,0,0.0,0.0,72,0.00,,,0.00,,2013-03-10 04:42:00,
2013-03-09 23:52:00,41.0,33.0,29.32,North,0,0.0,0.0,73,0.00,,,0.00,,2013-03-10 04:52:00,